Location: Heidgraben
(53.7081°N, 9.6576°E)
Time: 10:24:47
(UTC+00:00)

Cosmos 2278 Rocket - Pass Details

Date: 05 July 2020
Orbit: 841 x 846 km, 71.0° (Epoch: 05 August)

Event Time Altitude Azimuth Distance (km) Brightness Sun altitude
Rises 20:59:05 0° 327° (NNW) 3,419 8.1 -7.3°
Reaches altitude 10° 21:01:34 10° 330° (NNW) 2,480 6.4 -7.5°
Maximum altitude 21:07:16 75° 56° (NE) 881 2.3 -7.9°
Enters shadow 21:12:55 10° 141° (SE) 2,459 3.9 -8.4°
